User: anonymous   Login
Location: Clinton NY
(43.0598°N, 75.3602°W)
Time: 04:27:54
(UTC-04:00)
Language:

Cosmos-2242 - Orbit

View from above orbital plane
View from above orbital plane
View from above satellite
View from above satellite

Ground track
Ground track

The orbit data is extracted from the following two-line orbital elements,

1 22626U 93024A   15090.08894054  .00002204  00000-0  24427-3 0  9999
2 22626 082.5199 084.2006 0017683 287.1390 072.7891 14.86779977185888
Epoch (UTC): 31 March 2015 02:08:04
Eccentricity: 0.0017683
inclination: 82.5199°
perigee height: 595 km
apogee height: 620 km
right ascension of ascending node: 84.2006°
argument of perigee: 287.1390°
revolutions per day: 14.86779977
mean anomaly at epoch: 72.7891°
orbit number at epoch: 18588

The dashed part of the orbit path shows where the satellite is in the earth's shadow,  

DLR